sat.trackr.live / text

‹ back to catalog

TRANSPORTER-16 OBJECT L

NORAD 68426 · 2026-067L

PAYLOAD ACTIVE UNKNOWN

§ Identity

Operator
Country
TBD
Launch date
2026-03-30
Launch site
AFWTR
Launch vehicle
Mass (kg)
RCS (m²)

External: N2YO · Heavens-Above · Gunter

§ Orbital elements

Epoch: 2026-05-24T20:23:21.640128Z

Period
94.79 min
Inclination
97.4529°
Eccentricity
0.0004005
Mean motion
15.19155838 rev/d
Perigee alt
505.6 km
Apogee alt
511.1 km
Semi-major
6,886.5 km
B*
4.8838e-4
RAAN
103.7138°
Arg perigee
78.9083°
Mean anomaly
281.2601°
Rev number
840

§ Raw data

TRANSPORTER-16 OBJECT L1 68426U 26067L   26144.84955602  .00010206  00000+0  48838-3 0  99952 68426  97.4529 103.7138 0004005  78.9083 281.2601 15.19155838  8409

JSON: /api/v1/satellites/68426 · /tle

For live sub-satellite position, see the globe view (requires WebGL).

§ Visibility from observer

Set your observer location to see the next 7 days of passes ≥ 10°. The values pass through the URL so the page stays shareable.

No JS? Fill the form by hand. The geolocation button needs JavaScript.